Weather History for Minot, ND

Change the Weather History Date:

Wednesday, November 21, 2012

  Actual Average Record
Temperature  
Mean Temperature 41 °F 25 °F  
Max Temperature 52 °F 33 °F 60 °F (1939)
Min Temperature 30 °F 17 °F -20 °F (1921)
Degree Days  
Heating Degree Days 24 40  
Month to date heating degree days 729 717  
Since 1 July heating degree days 1685 1677  
Moisture  
Dew Point 32 °F    
Average Humidity 78    
Maximum Humidity 100    
Minimum Humidity 56    
Precipitation  
Precipitation 0.00 in 0.02 in 0.28 in (1970)
Month to date precipitation 0.58 0.58  
Year to date precipitation 13.53 16.64  
Sea Level Pressure  
Sea Level Pressure 29.72 in    
Wind  
Wind Speed 6 mph (NW)    
Max Wind Speed 22 mph    
Max Gust Speed 26 mph    
Visibility 8 miles    
Events      
T = Trace of Precipitation, MM = Missing Value Source: NWS Daily Summary

Daily Weather History Graph

Daily Weather History Graph

Search for Another Location

Airport:

Trip Planner

Search our weather history database for the weather conditions in past years. The results will help you decide how hot, cold, wet, or windy it might be!

Date:

Astronomy

Nov. 21, 2012 Rise Set
Actual Time 8:02 AM CST 4:59 PM CST
Civil Twilight 7:27 AM CST 5:34 PM CST
Nautical Twilight 6:48 AM CST 6:13 PM CST
Astronomical Twilight 6:11 AM CST 6:50 PM CST
Moon 1:43 PM CST (11/21) 12:54 AM CST (11/21)
Length of Visible Light 10h 07m
Length of Day
8h 57m
First Quarter, 62% of the Moon is Illuminated
Nov 21
First Quarter
Nov 28
Full
Dec 6
Last Quarter
Dec 13
New
Dec 19
First Quarter

Hourly Weather History & Observations

Time (CST) Temp. Windchill Dew Point Humidity Pressure Visibility Wind Dir Wind Speed Gust Speed Precip Events Conditions
12:54 AM 41.0 °F 39.0 °F 33.1 °F 73% 29.86 in 10.0 mi SSW 3.5 mph - N/A   Clear
1:54 AM 37.9 °F - 32.0 °F 79% 29.86 in 10.0 mi Calm Calm - N/A   Clear
2:54 AM 35.1 °F - 32.0 °F 89% 29.86 in 10.0 mi Calm Calm - N/A   Mostly Cloudy
3:54 AM 36.0 °F - 33.1 °F 89% 29.86 in 10.0 mi Calm Calm - N/A   Overcast
4:54 AM 35.1 °F - 32.0 °F 89% 29.85 in 10.0 mi Calm Calm - N/A   Scattered Clouds
5:54 AM 30.9 °F - 28.9 °F 92% 29.85 in 10.0 mi Calm Calm - N/A   Clear
6:54 AM 30.9 °F 24.3 °F 30.0 °F 96% 29.84 in 10.0 mi NW 6.9 mph - N/A   Clear
7:54 AM 30.9 °F - 28.9 °F 92% 29.82 in 10.0 mi Calm Calm - N/A   Scattered Clouds
8:54 AM 35.1 °F 31.0 °F 32.0 °F 89% 29.82 in 10.0 mi NNE 4.6 mph - N/A   Overcast
9:54 AM 37.0 °F 33.3 °F 33.1 °F 86% 29.78 in 10.0 mi ENE 4.6 mph - N/A   Mostly Cloudy
10:54 AM 39.0 °F 31.4 °F 34.0 °F 82% 29.75 in 10.0 mi ESE 12.7 mph - N/A   Clear
11:54 AM 41.0 °F 35.8 °F 35.1 °F 79% 29.72 in 10.0 mi ESE 8.1 mph - N/A   Clear
12:54 PM 46.0 °F 41.9 °F 35.1 °F 66% 29.68 in 10.0 mi ESE 8.1 mph - N/A   Clear
1:54 PM 50.0 °F - 36.0 °F 59% 29.65 in 10.0 mi ENE 4.6 mph - N/A   Clear
2:54 PM 50.0 °F - 37.9 °F 63% 29.62 in 10.0 mi ESE 6.9 mph - N/A   Clear
3:54 PM 48.9 °F - 37.9 °F 66% 29.60 in 10.0 mi ENE 4.6 mph - N/A   Clear
4:54 PM 39.0 °F 34.8 °F 34.0 °F 82% 29.62 in 10.0 mi NW 5.8 mph - N/A   Clear
5:54 PM 35.1 °F 29.3 °F 32.0 °F 89% 29.62 in 10.0 mi NW 6.9 mph - N/A   Clear
6:54 PM 36.0 °F 29.0 °F 33.1 °F 89% 29.65 in 10.0 mi WNW 9.2 mph - N/A   Clear
7:54 PM 35.1 °F 32.2 °F 33.1 °F 92% 29.62 in 10.0 mi West 3.5 mph - N/A   Mostly Cloudy
8:54 PM 35.1 °F 30.1 °F 32.0 °F 89% 29.63 in 10.0 mi West 5.8 mph - N/A   Partly Cloudy
9:54 PM 33.1 °F 24.4 °F 30.9 °F 92% 29.67 in 10.0 mi WNW 11.5 mph - N/A   Clear
10:13 PM 33.8 °F 23.5 °F 30.2 °F 87% 29.63 in 9.0 mi WNW 16.1 mph - N/A   Scattered Clouds
10:22 PM 33.8 °F 23.2 °F 30.2 °F 87% 29.65 in 6.0 mi WNW 17.3 mph 24.2 mph N/A   Mostly Cloudy
10:30 PM 32.0 °F 20.1 °F 30.2 °F 93% 29.65 in 3.0 mi NW 19.6 mph 26.5 mph N/A   Overcast
10:35 PM 32.0 °F 20.8 °F 30.2 °F 93% 29.64 in 1.8 mi NW 17.3 mph - N/A   Overcast
10:47 PM 30.2 °F 19.3 °F 30.2 °F 100% 29.64 in 1.0 mi NW 15.0 mph 23.0 mph N/A   Overcast
10:54 PM 32.0 °F 21.6 °F 30.9 °F 96% 29.70 in 1.2 mi NW 15.0 mph - N/A   Overcast
11:54 PM 32.0 °F 21.6 °F 30.9 °F 96% 29.70 in 1.8 mi WNW 15.0 mph 25.3 mph N/A   Overcast